QPF
0.01 0.01 0.01 0.01 0.01 0.01 0.01 0.01 0.00 0.00 0.00 0.01 0.00 0.00 0.00 0.01 0.01 0.01 0.01 0.01 0.01 0.02 0.01 0.01 0.01 0.01 0.01 0.01 0.01 0.01 0.02 0.03 0.04 0.05 0.04 0.05 0.06 0.05 0.04 0.05 0.09 0.08 0.05 0.06
0.01 0.01 0.01 0.01 0.00 0.00 0.01 0.01 0.00 0.00 0.00 0.00 0.01 0.01 0.00 0.01 0.01 0.01 0.01 0.01 0.01 0.01 0.01 0.01 0.01 0.01 0.01 0.01 0.01 0.01 0.02 0.04 0.07 0.07 0.06 0.06 0.06 0.05 0.05 0.05 0.09 0.08 0.05 0.05
0.01 0.01 0.00 0.00 0.00 0.00 0.00 0.01 0.01 0.00 0.00 0.00 0.00 0.01 0.01 0.01 0.01 0.02 0.01 0.01 0.01 0.01 0.01 0.01 0.01 0.01 0.01 0.01 0.01 0.02 0.04 0.05 0.08 0.07 0.07 0.06 0.05 0.06 0.07 0.07 0.08 0.06 0.03 0.03
0.00 0.01 0.00 0.00 0.00 0.00 0.00 0.01 0.00 0.00 0.01 0.01 0.01 0.02 0.01 0.01 0.03 0.05 0.04 0.01 0.01 0.01 0.01 0.01 0.01 0.01 0.02 0.02 0.03 0.04 0.05 0.07 0.08 0.08 0.07 0.05 0.08 0.07 0.07 0.06 0.06 0.06 0.05 0.03
0.01 0.00 0.00 0.01 0.01 0.00 0.01 0.00 0.00 0.00 0.01 0.01 0.01 0.02 0.01 0.00 0.03 0.05 0.04 0.02 0.01 0.01 0.01 0.01 0.02 0.02 0.02 0.02 0.03 0.04 0.05 0.07 0.07 0.05 0.05 0.06 0.07 0.07 0.07 0.06 0.06 0.08 0.07 0.04
0.00 0.00 0.00 0.00 0.00 0.00 0.00 0.00 0.00 0.00 0.01 0.03 0.02 0.02 0.02 0.01 0.01 0.01 0.01 0.01 0.00 0.01 0.01 0.01 0.01 0.02 0.02 0.02 0.02 0.02 0.05 0.05 0.06 0.06 0.06 0.06 0.07 0.07 0.09 0.08 0.07 0.06 0.05 0.05
0.00 0.00 0.00 0.00 0.00 0.00 0.00 0.01 0.05 0.05 0.04 0.04 0.01 0.01 0.01 0.00 0.00 0.00 0.00 0.01 0.01 0.00 0.00 0.01 0.03 0.02 0.03 0.03 0.02 0.01 0.02 0.03 0.05 0.06 0.07 0.07 0.07 0.07 0.07 0.05 0.05 0.04 0.03 0.04
0.01 0.01 0.00 0.00 0.00 0.00 0.00 0.01 0.05 0.07 0.06 0.05 0.03 0.02 0.01 0.00 0.00 0.00 0.00 0.00 0.00 0.00 0.00 0.01 0.02 0.02 0.02 0.02 0.01 0.01 0.02 0.02 0.04 0.06 0.08 0.08 0.07 0.06 0.06 0.05 0.04 0.03 0.02 0.02
0.00 0.01 0.00 0.00 0.00 0.00 0.00 0.01 0.01 0.03 0.02 0.05 0.08 0.05 0.02 0.00 0.01 0.01 0.00 0.00 0.00 0.00 0.00 0.01 0.01 0.00 0.01 0.00 0.00 0.01 0.01 0.02 0.03 0.04 0.05 0.05 0.05 0.05 0.05 0.05 0.04 0.03 0.03 0.03
0.01 0.01 0.00 0.00 0.00 0.00 0.00 0.01 0.01 0.02 0.03 0.05 0.08 0.05 0.02 0.02 0.02 0.01 0.01 0.00 0.00 0.00 0.00 0.01 0.00 0.00 0.00 0.00 0.01 0.01 0.01 0.02 0.02 0.03 0.03 0.03 0.03 0.03 0.04 0.04 0.05 0.03 0.03 0.03
0.01 0.01 0.01 0.00 0.00 0.00 0.00 0.00 0.01 0.03 0.02 0.03 0.07 0.05 0.01 0.01 0.01 0.01 0.01 0.00 0.00 0.00 0.01 0.01 0.00 0.00 0.00 0.00 0.00 0.00 0.00 0.01 0.02 0.02 0.02 0.03 0.03 0.03 0.03 0.03 0.03 0.03 0.03 0.03
0.01 0.01 0.02 0.01 0.00 0.00 0.00 0.00 0.00 0.02 0.03 0.02 0.04 0.06 0.02 0.01 0.00 0.00 0.00 0.00 0.00 0.00 0.01 0.01 0.00 0.00 0.00 0.00 0.00 0.00 0.01 0.01 0.01 0.01 0.02 0.03 0.04 0.03 0.02 0.02 0.02 0.02 0.02 0.03
0.01 0.02 0.03 0.02 0.02 0.01 0.00 0.00 0.00 0.01 0.03 0.02 0.04 0.06 0.03 0.02 0.00 0.00 0.00 0.00 0.00 0.00 0.00 0.00 0.00 0.00 0.00 0.00 0.00 0.00 0.01 0.01 0.02 0.02 0.04 0.04 0.03 0.03 0.03 0.03 0.03 0.02 0.01 0.02
0.01 0.01 0.03 0.04 0.03 0.01 0.00 0.00 0.00 0.00 0.02 0.02 0.03 0.03 0.03 0.01 0.00 0.00 0.00 0.00 0.00 0.01 0.01 0.00 0.00 0.00 0.00 0.00 0.00 0.00 0.01 0.01 0.02 0.03 0.03 0.04 0.04 0.03 0.03 0.03 0.03 0.03 0.02 0.01
0.00 0.01 0.01 0.02 0.02 0.01 0.00 0.00 0.00 0.00 0.00 0.01 0.01 0.02 0.02 0.01 0.00 0.00 0.00 0.00 0.00 0.00 0.00 0.00 0.00 0.00 0.00 0.00 0.00 0.00 0.01 0.01 0.03 0.05 0.05 0.04 0.03 0.03 0.03 0.04 0.04 0.04 0.03 0.02
0.00 0.01 0.01 0.01 0.00 0.00 0.00 0.00 0.00 0.00 0.00 0.00 0.02 0.05 0.04 0.01 0.01 0.01 0.00 0.00 0.00 0.01 0.01 0.00 0.00 0.00 0.01 0.00 0.00 0.00 0.00 0.01 0.01 0.02 0.06 0.07 0.07 0.06 0.04 0.04 0.03 0.04 0.03 0.03
0.00 0.01 0.02 0.01 0.01 0.00 0.00 0.00 0.00 0.00 0.00 0.00 0.02 0.04 0.03 0.01 0.01 0.01 0.02 0.01 0.00 0.00 0.00 0.00 0.00 0.01 0.01 0.01 0.00 0.00 0.01 0.01 0.01 0.02 0.03 0.04 0.06 0.06 0.05 0.03 0.03 0.02 0.02 0.03
0.01 0.01 0.03 0.03 0.02 0.02 0.01 0.00 0.01 0.01 0.00 0.01 0.03 0.02 0.01 0.01 0.01 0.03 0.02 0.00 0.00 0.00 0.00 0.00 0.01 0.01 0.01 0.01 0.01 0.01 0.01 0.01 0.01 0.01 0.01 0.01 0.02 0.02 0.03 0.03 0.02 0.01 0.02 0.02
0.00 0.01 0.04 0.03 0.03 0.02 0.00 0.00 0.01 0.02 0.01 0.01 0.02 0.01 0.01 0.01 0.01 0.01 0.01 0.01 0.01 0.01 0.01 0.01 0.01 0.01 0.01 0.01 0.01 0.01 0.01 0.01 0.01 0.01 0.01 0.01 0.01 0.01 0.02 0.02 0.01 0.01 0.01 0.01
0.00 0.01 0.03 0.02 0.04 0.03 0.01 0.00 0.01 0.01 0.02 0.00 0.00 0.00 0.01 0.03 0.06 0.05 0.02 0.01 0.01 0.02 0.01 0.02 0.02 0.01 0.02 0.02 0.01 0.00 0.01 0.01 0.01 0.01 0.01 0.01 0.01 0.02 0.02 0.02 0.02 0.02 0.02 0.01
0.01 0.01 0.02 0.02 0.03 0.03 0.01 0.00 0.01 0.02 0.03 0.01 0.01 0.01 0.02 0.04 0.07 0.05 0.03 0.02 0.02 0.03 0.04 0.05 0.05 0.05 0.03 0.01 0.00 0.00 0.01 0.01 0.01 0.01 0.02 0.02 0.02 0.02 0.02 0.03 0.03 0.03 0.02 0.02
0.01 0.01 0.02 0.01 0.02 0.03 0.01 0.00 0.01 0.02 0.02 0.01 0.01 0.01 0.01 0.03 0.04 0.03 0.03 0.03 0.04 0.04 0.05 0.05 0.04 0.02 0.01 0.00 0.01 0.01 0.01 0.02 0.02 0.03 0.04 0.05 0.06 0.04 0.03 0.04 0.03 0.03 0.03 0.03
0.02 0.02 0.03 0.03 0.02 0.02 0.01 0.01 0.01 0.01 0.01 0.01 0.01 0.01 0.01 0.03 0.04 0.03 0.02 0.02 0.02 0.04 0.05 0.03 0.02 0.02 0.02 0.00 0.01 0.02 0.02 0.02 0.02 0.03 0.03 0.04 0.06 0.08 0.10 0.09 0.06 0.05 0.04 0.04
0.02 0.01 0.02 0.02 0.01 0.01 0.00 0.02 0.03 0.01 0.00 0.00 0.00 0.00 0.00 0.01 0.02 0.01 0.01 0.01 0.02 0.02 0.04 0.04 0.04 0.05 0.04 0.02 0.02 0.02 0.02 0.02 0.03 0.03 0.03 0.03 0.04 0.04 0.06 0.08 0.10 0.09 0.07 0.04
0.02 0.01 0.01 0.02 0.02 0.01 0.01 0.02 0.02 0.01 0.01 0.01 0.00 0.00 0.00 0.00 0.01 0.01 0.01 0.00 0.01 0.02 0.01 0.02 0.04 0.07 0.05 0.03 0.02 0.02 0.01 0.02 0.02 0.02 0.03 0.04 0.05 0.06 0.05 0.05 0.05 0.05 0.04 0.02
0.00 0.01 0.03 0.03 0.03 0.01 0.01 0.00 0.01 0.02 0.01 0.01 0.01 0.00 0.00 0.00 0.00 0.00 0.00 0.00 0.01 0.00 0.01 0.01 0.01 0.03 0.03 0.02 0.01 0.01 0.01 0.01 0.02 0.02 0.03 0.05 0.05 0.06 0.06 0.07 0.06 0.05 0.04 0.03
MSLP
1004.81 1005.17 1005.37 1005.46 1005.47 1005.47 1005.50 1005.60 1005.79 1006.03 1006.28 1006.51 1006.67 1006.74 1006.72 1006.65 1006.57 1006.52 1006.55 1006.67 1006.90 1007.22 1007.59 1007.99 1008.37 1008.73 1009.05 1009.35 1009.64 1009.94 1010.25 1010.57 1010.90 1011.20 1011.45 1011.64 1011.76 1011.82 1011.83 1011.83 1011.85 1011.93 1012.06 1012.25
1004.87 1005.07 1005.15 1005.14 1005.12 1005.13 1005.24 1005.45 1005.75 1006.09 1006.40 1006.64 1006.76 1006.75 1006.63 1006.44 1006.26 1006.14 1006.14 1006.27 1006.55 1006.93 1007.38 1007.84 1008.27 1008.65 1008.98 1009.27 1009.54 1009.83 1010.15 1010.49 1010.84 1011.17 1011.45 1011.65 1011.77 1011.81 1011.80 1011.77 1011.77 1011.82 1011.95 1012.16
1004.82 1004.83 1004.75 1004.64 1004.58 1004.63 1004.84 1005.18 1005.61 1006.07 1006.47 1006.73 1006.82 1006.73 1006.48 1006.17 1005.86 1005.65 1005.59 1005.71 1006.01 1006.45 1006.97 1007.51 1008.01 1008.44 1008.80 1009.11 1009.40 1009.69 1010.02 1010.38 1010.75 1011.11 1011.41 1011.64 1011.77 1011.81 1011.78 1011.74 1011.72 1011.77 1011.90 1012.12
1004.71 1004.53 1004.29 1004.09 1004.01 1004.12 1004.43 1004.92 1005.52 1006.11 1006.60 1006.90 1006.95 1006.76 1006.39 1005.91 1005.45 1005.10 1004.95 1005.02 1005.32 1005.79 1006.37 1006.98 1007.56 1008.06 1008.48 1008.84 1009.16 1009.48 1009.83 1010.21 1010.61 1010.99 1011.33 1011.57 1011.72 1011.77 1011.76 1011.72 1011.71 1011.77 1011.91 1012.14
1004.61 1004.25 1003.89 1003.62 1003.55 1003.73 1004.18 1004.83 1005.59 1006.32 1006.90 1007.22 1007.23 1006.94 1006.42 1005.76 1005.11 1004.60 1004.30 1004.28 1004.53 1004.99 1005.60 1006.27 1006.92 1007.49 1007.98 1008.40 1008.77 1009.14 1009.52 1009.94 1010.37 1010.79 1011.15 1011.44 1011.62 1011.70 1011.72 1011.70 1011.71 1011.79 1011.95 1012.20
1004.53 1004.06 1003.63 1003.34 1003.32 1003.59 1004.17 1004.98 1005.88 1006.74 1007.39 1007.73 1007.69 1007.29 1006.61 1005.76 1004.91 1004.19 1003.72 1003.56 1003.71 1004.12 1004.72 1005.42 1006.11 1006.76 1007.32 1007.80 1008.24 1008.66 1009.09 1009.55 1010.02 1010.48 1010.89 1011.22 1011.45 1011.58 1011.64 1011.67 1011.71 1011.82 1012.02 1012.30
1004.48 1003.97 1003.53 1003.29 1003.33 1003.72 1004.42 1005.35 1006.38 1007.32 1008.02 1008.36 1008.27 1007.76 1006.93 1005.89 1004.84 1003.92 1003.26 1002.93 1002.94 1003.27 1003.82 1004.49 1005.21 1005.89 1006.51 1007.05 1007.55 1008.03 1008.52 1009.02 1009.54 1010.05 1010.52 1010.91 1011.20 1011.39 1011.51 1011.60 1011.70 1011.85 1012.09 1012.41
1004.43 1003.97 1003.60 1003.43 1003.57 1004.05 1004.85 1005.87 1006.96 1007.94 1008.66 1008.97 1008.82 1008.23 1007.27 1006.09 1004.87 1003.77 1002.93 1002.43 1002.30 1002.50 1002.97 1003.59 1004.29 1004.98 1005.62 1006.21 1006.76 1007.29 1007.83 1008.39 1008.96 1009.53 1010.06 1010.52 1010.88 1011.15 1011.34 1011.50 1011.66 1011.86 1012.14 1012.50
1004.36 1004.01 1003.75 1003.69 1003.92 1004.48 1005.33 1006.37 1007.47 1008.44 1009.12 1009.39 1009.19 1008.53 1007.50 1006.23 1004.91 1003.69 1002.72 1002.09 1001.82 1001.89 1002.25 1002.79 1003.43 1004.09 1004.72 1005.33 1005.90 1006.47 1007.05 1007.67 1008.30 1008.93 1009.53 1010.06 1010.51 1010.86 1011.13 1011.36 1011.58 1011.84 1012.16 1012.55
1004.25 1004.06 1003.94 1003.99 1004.30 1004.89 1005.72 1006.72 1007.74 1008.64 1009.24 1009.46 1009.22 1008.53 1007.49 1006.21 1004.87 1003.61 1002.59 1001.87 1001.51 1001.47 1001.72 1002.16 1002.70 1003.30 1003.89 1004.48 1005.05 1005.64 1006.25 1006.90 1007.58 1008.27 1008.94 1009.55 1010.08 1010.52 1010.87 1011.17 1011.45 1011.76 1012.12 1012.53
1004.10 1004.09 1004.12 1004.28 1004.62 1005.18 1005.93 1006.81 1007.69 1008.44 1008.93 1009.06 1008.80 1008.13 1007.15 1005.94 1004.68 1003.49 1002.49 1001.77 1001.37 1001.26 1001.41 1001.74 1002.18 1002.68 1003.20 1003.73 1004.27 1004.84 1005.46 1006.13 1006.85 1007.58 1008.31 1009.00 1009.61 1010.13 1010.57 1010.94 1011.29 1011.63 1012.01 1012.45
1003.97 1004.14 1004.30 1004.53 1004.87 1005.35 1005.95 1006.64 1007.31 1007.87 1008.21 1008.25 1007.97 1007.36 1006.49 1005.44 1004.33 1003.30 1002.42 1001.78 1001.39 1001.25 1001.33 1001.56 1001.89 1002.27 1002.69 1003.12 1003.60 1004.12 1004.71 1005.38 1006.11 1006.88 1007.66 1008.41 1009.10 1009.71 1010.23 1010.68 1011.08 1011.47 1011.87 1012.32
1003.94 1004.25 1004.52 1004.78 1005.08 1005.43 1005.85 1006.30 1006.72 1007.05 1007.21 1007.16 1006.87 1006.34 1005.62 1004.77 1003.90 1003.09 1002.40 1001.89 1001.58 1001.45 1001.48 1001.62 1001.83 1002.09 1002.38 1002.70 1003.07 1003.51 1004.05 1004.68 1005.40 1006.19 1007.00 1007.81 1008.57 1009.25 1009.85 1010.38 1010.85 1011.28 1011.72 1012.17
1004.05 1004.48 1004.82 1005.09 1005.32 1005.53 1005.74 1005.93 1006.09 1006.18 1006.16 1006.01 1005.71 1005.26 1004.71 1004.10 1003.49 1002.93 1002.48 1002.14 1001.94 1001.85 1001.86 1001.92 1002.02 1002.14 1002.29 1002.47 1002.71 1003.04 1003.49 1004.06 1004.74 1005.51 1006.34 1007.18 1008.01 1008.77 1009.45 1010.06 1010.61 1011.10 1011.57 1012.05
1004.35 1004.86 1005.24 1005.50 1005.66 1005.73 1005.74 1005.69 1005.60 1005.47 1005.27 1005.02 1004.71 1004.35 1003.97 1003.58 1003.23 1002.93 1002.71 1002.56 1002.48 1002.45 1002.45 1002.45 1002.44 1002.42 1002.41 1002.43 1002.53 1002.72 1003.05 1003.53 1004.14 1004.88 1005.70 1006.57 1007.43 1008.27 1009.04 1009.74 1010.37 1010.93 1011.45 1011.96
1004.81 1005.37 1005.78 1006.03 1006.12 1006.07 1005.92 1005.68 1005.38 1005.06 1004.72 1004.38 1004.06 1003.78 1003.54 1003.35 1003.23 1003.16 1003.15 1003.17 1003.21 1003.23 1003.21 1003.15 1003.04 1002.88 1002.72 1002.58 1002.52 1002.56 1002.76 1003.11 1003.64 1004.31 1005.10 1005.97 1006.87 1007.77 1008.62 1009.41 1010.13 1010.77 1011.36 1011.91
1005.36 1005.94 1006.36 1006.60 1006.65 1006.54 1006.28 1005.90 1005.47 1005.01 1004.57 1004.18 1003.86 1003.63 1003.50 1003.47 1003.52 1003.64 1003.80 1003.95 1004.08 1004.14 1004.12 1003.99 1003.78 1003.50 1003.19 1002.90 1002.68 1002.57 1002.61 1002.84 1003.25 1003.84 1004.58 1005.43 1006.34 1007.28 1008.20 1009.07 1009.88 1010.61 1011.27 1011.87
1005.88 1006.45 1006.88 1007.12 1007.16 1007.02 1006.72 1006.29 1005.79 1005.27 1004.79 1004.37 1004.07 1003.89 1003.84 1003.92 1004.09 1004.34 1004.60 1004.85 1005.03 1005.11 1005.07 1004.89 1004.60 1004.22 1003.78 1003.35 1002.98 1002.73 1002.63 1002.73 1003.02 1003.51 1004.17 1004.98 1005.88 1006.83 1007.79 1008.72 1009.60 1010.40 1011.13 1011.79
1006.25 1006.79 1007.20 1007.44 1007.50 1007.38 1007.10 1006.69 1006.21 1005.70 1005.22 1004.83 1004.55 1004.42 1004.43 1004.57 1004.83 1005.14 1005.47 1005.76 1005.97 1006.05 1005.99 1005.77 1005.41 1004.95 1004.42 1003.89 1003.41 1003.03 1002.81 1002.78 1002.95 1003.33 1003.90 1004.64 1005.49 1006.42 1007.38 1008.34 1009.26 1010.11 1010.89 1011.59
1006.37 1006.84 1007.22 1007.47 1007.56 1007.50 1007.28 1006.95 1006.54 1006.10 1005.69 1005.35 1005.13 1005.04 1005.09 1005.28 1005.57 1005.91 1006.26 1006.57 1006.77 1006.85 1006.77 1006.53 1006.14 1005.63 1005.05 1004.45 1003.90 1003.43 1003.12 1002.98 1003.05 1003.32 1003.78 1004.42 1005.20 1006.07 1007.00 1007.93 1008.85 1009.71 1010.51 1011.24
1006.21 1006.60 1006.93 1007.16 1007.29 1007.29 1007.17 1006.94 1006.65 1006.32 1006.02 1005.77 1005.62 1005.59 1005.68 1005.89 1006.19 1006.53 1006.88 1007.17 1007.37 1007.43 1007.34 1007.09 1006.70 1006.19 1005.60 1004.99 1004.41 1003.90 1003.53 1003.32 1003.29 1003.46 1003.81 1004.34 1005.01 1005.78 1006.63 1007.50 1008.37 1009.21 1009.99 1010.72
1005.82 1006.10 1006.36 1006.57 1006.71 1006.78 1006.75 1006.65 1006.49 1006.30 1006.12 1005.99 1005.92 1005.95 1006.07 1006.29 1006.58 1006.91 1007.23 1007.50 1007.68 1007.74 1007.65 1007.42 1007.06 1006.58 1006.03 1005.45 1004.89 1004.38 1003.99 1003.74 1003.65 1003.73 1003.97 1004.38 1004.92 1005.57 1006.30 1007.07 1007.86 1008.63 1009.37 1010.07
1005.30 1005.46 1005.63 1005.80 1005.95 1006.06 1006.13 1006.14 1006.11 1006.06 1006.00 1005.97 1005.99 1006.07 1006.23 1006.45 1006.73 1007.02 1007.31 1007.55 1007.71 1007.77 1007.70 1007.50 1007.19 1006.78 1006.30 1005.79 1005.29 1004.83 1004.46 1004.20 1004.07 1004.08 1004.23 1004.52 1004.93 1005.44 1006.03 1006.67 1007.34 1008.02 1008.70 1009.36
1004.79 1004.83 1004.92 1005.04 1005.17 1005.31 1005.43 1005.54 1005.62 1005.68 1005.73 1005.79 1005.88 1006.01 1006.18 1006.40 1006.64 1006.90 1007.15 1007.35 1007.49 1007.55 1007.50 1007.35 1007.11 1006.78 1006.40 1005.99 1005.58 1005.20 1004.88 1004.64 1004.50 1004.46 1004.54 1004.72 1005.00 1005.38 1005.83 1006.33 1006.88 1007.46 1008.07 1008.68
1004.40 1004.35 1004.36 1004.43 1004.54 1004.68 1004.84 1005.00 1005.15 1005.29 1005.41 1005.54 1005.68 1005.83 1006.00 1006.20 1006.41 1006.62 1006.82 1006.98 1007.10 1007.15 1007.12 1007.02 1006.85 1006.62 1006.34 1006.04 1005.74 1005.45 1005.21 1005.01 1004.88 1004.82 1004.84 1004.94 1005.12 1005.37 1005.69 1006.07 1006.51 1007.00 1007.54 1008.11
1004.23 1004.12 1004.08 1004.09 1004.17 1004.30 1004.46 1004.64 1004.82 1005.00 1005.16 1005.32 1005.47 1005.62 1005.77 1005.93 1006.09 1006.25 1006.40 1006.52 1006.60 1006.64 1006.63 1006.57 1006.46 1006.31 1006.14 1005.95 1005.75 1005.56 1005.40 1005.26 1005.15 1005.09 1005.08 1005.12 1005.22 1005.38 1005.60 1005.89 1006.25 1006.67 1007.16 1007.71
Thickness
5859 5845 5838 5849 5858 5857 5855 5849 5842 5852 5876 5869 5859 5854 5857 5867 5862 5857 5854 5851 5847 5846 5848 5847 5844 5841 5835 5829 5824 5820 5816 5814 5812 5808 5806 5802 5800 5801 5800 5799 5795 5793 5791 5789
5845 5841 5858 5867 5869 5863 5858 5848 5848 5859 5875 5868 5859 5855 5861 5866 5863 5859 5857 5854 5852 5849 5847 5845 5843 5840 5835 5829 5824 5821 5817 5815 5812 5809 5807 5805 5803 5801 5800 5798 5796 5793 5791 5789
5837 5853 5870 5865 5861 5855 5855 5850 5850 5853 5863 5866 5855 5846 5852 5858 5863 5860 5861 5861 5856 5852 5847 5843 5841 5838 5835 5830 5826 5823 5818 5815 5813 5811 5809 5806 5802 5799 5796 5794 5793 5792 5791 5789
5846 5864 5865 5859 5856 5856 5846 5866 5864 5859 5847 5839 5845 5822 5841 5851 5852 5853 5854 5859 5858 5854 5852 5847 5842 5838 5835 5832 5829 5823 5819 5815 5813 5811 5807 5802 5796 5792 5793 5793 5792 5791 5791 5789
5842 5858 5856 5852 5858 5861 5856 5871 5865 5860 5848 5837 5842 5828 5836 5852 5841 5847 5853 5859 5861 5859 5855 5849 5844 5840 5837 5834 5829 5823 5818 5814 5812 5809 5806 5801 5797 5795 5794 5793 5791 5789 5789 5788
5852 5869 5867 5864 5869 5870 5869 5865 5860 5856 5843 5813 5829 5825 5824 5844 5849 5853 5858 5862 5864 5861 5857 5852 5848 5842 5838 5834 5829 5823 5816 5812 5811 5808 5805 5801 5796 5794 5791 5789 5787 5786 5787 5786
5836 5853 5868 5873 5856 5862 5861 5840 5815 5807 5806 5808 5837 5829 5833 5858 5868 5867 5864 5863 5864 5862 5857 5850 5844 5839 5835 5831 5828 5823 5815 5810 5809 5807 5803 5800 5797 5794 5790 5788 5786 5784 5783 5781
5817 5822 5852 5862 5854 5847 5851 5842 5810 5793 5795 5810 5827 5823 5843 5870 5875 5875 5872 5868 5864 5860 5857 5851 5845 5839 5835 5831 5827 5822 5815 5810 5807 5805 5802 5799 5797 5794 5791 5788 5786 5783 5781 5779
5823 5824 5859 5865 5867 5857 5842 5842 5851 5828 5819 5808 5816 5829 5846 5867 5865 5866 5865 5862 5858 5858 5856 5851 5846 5841 5835 5831 5827 5822 5816 5810 5807 5804 5800 5797 5795 5792 5790 5787 5785 5782 5779 5778
5836 5822 5848 5865 5864 5863 5859 5851 5842 5825 5802 5791 5801 5814 5825 5842 5848 5855 5856 5855 5855 5856 5853 5849 5845 5840 5836 5832 5827 5823 5817 5811 5807 5803 5800 5797 5793 5791 5788 5785 5781 5779 5777 5775
5840 5821 5831 5845 5837 5833 5842 5841 5836 5830 5825 5800 5786 5806 5850 5848 5853 5852 5853 5853 5852 5851 5849 5846 5843 5840 5835 5830 5826 5820 5815 5810 5805 5802 5798 5794 5791 5789 5786 5782 5779 5776 5774 5771
5836 5825 5815 5830 5850 5857 5850 5843 5838 5817 5812 5816 5802 5810 5862 5857 5859 5856 5851 5851 5850 5850 5848 5845 5841 5837 5832 5827 5823 5817 5812 5807 5803 5800 5796 5791 5788 5785 5782 5779 5777 5774 5771 5768
5828 5813 5794 5802 5822 5839 5838 5842 5844 5841 5831 5817 5803 5812 5857 5853 5852 5851 5847 5844 5842 5842 5842 5839 5835 5830 5826 5822 5819 5814 5810 5806 5802 5797 5792 5787 5784 5781 5778 5775 5773 5770 5767 5764
5826 5810 5799 5790 5803 5820 5819 5828 5835 5829 5816 5813 5815 5817 5833 5839 5841 5841 5840 5837 5835 5834 5833 5829 5826 5823 5821 5818 5814 5810 5806 5803 5799 5794 5788 5783 5780 5777 5774 5771 5769 5766 5763 5760
5821 5803 5807 5814 5822 5823 5822 5826 5830 5825 5823 5816 5816 5818 5826 5835 5837 5835 5834 5832 5828 5826 5824 5821 5819 5816 5814 5811 5808 5805 5801 5798 5794 5789 5784 5779 5776 5774 5770 5767 5764 5762 5759 5757
5814 5799 5801 5801 5817 5821 5819 5827 5830 5829 5829 5824 5820 5819 5834 5836 5834 5827 5825 5823 5818 5817 5816 5815 5812 5809 5806 5804 5802 5799 5796 5793 5789 5783 5778 5775 5772 5768 5765 5761 5759 5756 5754 5752
5804 5793 5783 5784 5803 5804 5798 5819 5822 5821 5827 5823 5810 5814 5827 5820 5819 5818 5818 5816 5812 5811 5810 5807 5805 5802 5800 5798 5796 5792 5790 5788 5783 5778 5774 5770 5766 5763 5759 5757 5753 5750 5748 5746
5795 5787 5782 5779 5780 5763 5802 5835 5831 5821 5821 5824 5819 5820 5821 5816 5814 5817 5817 5813 5808 5806 5804 5802 5800 5797 5795 5794 5791 5788 5785 5781 5777 5772 5769 5766 5762 5758 5755 5752 5748 5745 5743 5740
5804 5786 5774 5770 5766 5776 5803 5818 5818 5806 5803 5817 5814 5813 5815 5816 5808 5802 5806 5807 5804 5801 5799 5795 5794 5792 5789 5785 5783 5779 5776 5773 5769 5765 5762 5760 5757 5752 5749 5745 5743 5741 5737 5734
5799 5790 5771 5765 5754 5755 5781 5809 5819 5806 5786 5808 5808 5802 5802 5800 5782 5782 5795 5796 5796 5794 5791 5788 5786 5784 5779 5777 5774 5770 5766 5763 5760 5759 5757 5754 5751 5746 5743 5741 5738 5735 5732 5729
5769 5769 5762 5759 5756 5766 5789 5804 5804 5771 5768 5796 5799 5795 5792 5785 5780 5783 5788 5786 5784 5783 5781 5780 5777 5773 5770 5769 5766 5761 5758 5755 5755 5754 5750 5747 5744 5740 5738 5735 5732 5729 5726 5723
5760 5756 5754 5755 5748 5748 5786 5789 5777 5773 5786 5789 5788 5786 5782 5778 5777 5776 5777 5776 5774 5771 5770 5768 5765 5763 5763 5761 5757 5752 5749 5750 5749 5746 5742 5739 5737 5735 5733 5728 5725 5722 5719 5716
5760 5759 5758 5753 5750 5766 5778 5777 5781 5784 5780 5778 5777 5776 5773 5767 5764 5765 5766 5765 5764 5762 5759 5758 5754 5752 5751 5751 5749 5744 5743 5743 5740 5737 5734 5732 5731 5729 5726 5722 5718 5715 5712 5710
5752 5760 5753 5747 5754 5765 5770 5772 5771 5772 5772 5773 5773 5770 5768 5761 5758 5756 5757 5755 5752 5750 5749 5748 5745 5742 5741 5741 5741 5739 5737 5735 5732 5728 5726 5726 5724 5723 5720 5716 5713 5709 5705 5705
5737 5743 5740 5736 5744 5752 5755 5757 5758 5761 5761 5761 5762 5762 5760 5754 5751 5749 5747 5745 5743 5741 5740 5739 5735 5732 5730 5732 5731 5731 5729 5727 5723 5721 5719 5718 5718 5717 5713 5709 5707 5704 5702 5701
5736 5734 5728 5725 5735 5735 5739 5749 5751 5746 5744 5747 5748 5746 5748 5746 5742 5740 5737 5736 5735 5733 5731 5728 5727 5725 5723 5723 5722 5722 5721 5718 5714 5712 5710 5710 5710 5710 5707 5703 5700 5697 5696 5695